Location: Donald C. Martin Observatory
(38.3885°N, 82.3916°W)
Time: 20:54:53
(UTC-04:00)

Cosmos 1484 Rocket - Visible Passes

Search period start: 29 July 2014 00:00
Search period end: 08 August 2014 00:00
Orbit: 515 x 575 km, 97.4° (Epoch: 29 July)

Date Brightness Start Highest point End Pass type
(mag) Time Alt. Az. Time Alt. Az. Time Alt. Az.
29 Jul 5.6 22:00:01 10° SW 22:02:31 16° W 22:05:00 10° NW visible
30 Jul 5.5 21:53:54 10° SW 21:56:44 18° W 21:59:32 10° NW visible
31 Jul 5.3 21:47:52 10° SW 21:50:57 21° W 21:54:01 10° NW visible
01 Aug 5.1 21:41:52 10° SSW 21:45:10 25° W 21:48:26 10° NW visible
02 Aug 4.8 21:35:54 10° SSW 21:39:23 29° W 21:42:49 10° NW visible
03 Aug 4.5 21:29:59 10° SSW 21:33:36 33° W 21:37:11 10° NNW visible
04 Aug 4.2 21:24:06 10° SSW 21:27:49 39° W 21:31:30 10° NNW visible
05 Aug 3.9 21:18:14 10° S 21:22:02 46° W 21:25:49 10° NNW visible
06 Aug 3.5 21:12:23 10° S 21:16:16 55° W 21:20:05 10° NNW visible
07 Aug 3.2 21:06:35 10° S 21:10:29 66° W 21:14:21 10° NNW visible
